^^
Station Historical Data
Daily Summary for October 19, 2021 Units:  English    Metric   Both
Daily Weekly Monthly Yearly
  High: Low: Average:
Temperature: 66.6 °F 51.5 °F 58.6 °F
Dew Point: 57.2 °F 47.2 °F 52.4 °F
Humidity: 89% 68% 80%
Wind Speed: 4mph 0mph 1.7mph
Wind Gust: 7mph - -
Wind- - SSW
Pressure: 30.05 in 29.96 in -
Precipitation: 0.00 in    
 
 
Tabular Data for October 19, 2021
Time Temperature Dew Point Pressure Wind Wind Speed Wind Gust Humidity Rainfall Rate (Hourly) solar
00:05 55.2 °F 50.1 °F 30.04 in NNW 1 mph 1 mph 83% 0.00 in 0 W/m2
00:10 55.2 °F 50.4 °F 30.04 in NNW 1 mph 1 mph 84% 0.00 in 0 W/m2
00:15 55.2 °F 50.4 °F 30.04 in NW 1 mph 2 mph 84% 0.00 in 0 W/m2
00:20 55.2 °F 50.4 °F 30.04 in NW 1 mph 3 mph 84% 0.00 in 0 W/m2
00:25 55.2 °F 50.4 °F 30.04 in NNW 2 mph 3 mph 84% 0.00 in 0 W/m2
00:30 55.2 °F 50.4 °F 30.04 in WNW 1 mph 2 mph 84% 0.00 in 0 W/m2
00:35 55.1 °F 50.4 °F 30.04 in NNW 2 mph 3 mph 84% 0.00 in 0 W/m2
00:40 55.1 °F 50.4 °F 30.04 in NNW 2 mph 2 mph 84% 0.00 in 0 W/m2
00:45 55.1 °F 50.4 °F 30.04 in West 2 mph 2 mph 84% 0.00 in 0 W/m2
00:50 55.1 °F 50 °F 30.04 in NW 2 mph 2 mph 83% 0.00 in 0 W/m2
00:55 55.1 °F 50 °F 30.04 in NW 2 mph 2 mph 83% 0.00 in 0 W/m2
01:00 55.1 °F 49.7 °F 30.04 in NNW 2 mph 2 mph 82% 0.00 in 0 W/m2
01:05 55.1 °F 49.7 °F 30.04 in NW 2 mph 4 mph 82% 0.00 in 0 W/m2
01:10 55 °F 49.3 °F 30.04 in NW 2 mph 2 mph 81% 0.00 in 0 W/m2
01:15 55 °F 49.3 °F 30.04 in NW 2 mph 2 mph 81% 0.00 in 0 W/m2
01:20 55 °F 48.9 °F 30.04 in NNW 2 mph 2 mph 80% 0.00 in 0 W/m2
01:25 54.9 °F 48.8 °F 30.04 in NNW 2 mph 2 mph 80% 0.00 in 0 W/m2
01:30 54.9 °F 48.5 °F 30.04 in NW 1 mph 1 mph 79% 0.00 in 0 W/m2
01:35 54.8 °F 48.1 °F 30.04 in NNW 1 mph 1 mph 78% 0.00 in 0 W/m2
01:40 54.7 °F 48 °F 30.04 in NNW 1 mph 3 mph 78% 0.00 in 0 W/m2
01:45 54.6 °F 47.5 °F 30.04 in NNW 1 mph 3 mph 77% 0.00 in 0 W/m2
01:50 54.6 °F 47.5 °F 30.04 in NW 1 mph 1 mph 77% 0.00 in 0 W/m2
01:55 54.5 °F 47.4 °F 30.04 in NE 1 mph 1 mph 77% 0.00 in 0 W/m2
02:00 54.5 °F 47.4 °F 30.04 in Calm   1 mph 77% 0.00 in 0 W/m2
02:05 54.4 °F 47.7 °F 30.04 in Calm   1 mph 78% 0.00 in 0 W/m2
02:10 54.2 °F 47.5 °F 30.04 in Calm     78% 0.00 in 0 W/m2
02:15 54.2 °F 47.8 °F 30.04 in Calm     79% 0.00 in 0 W/m2
02:20 54.1 °F 47.7 °F 30.04 in Calm     79% 0.00 in 0 W/m2
02:25 54 °F 48 °F 30.04 in Calm     80% 0.00 in 0 W/m2
02:30 53.9 °F 48.2 °F 30.04 in Calm   1 mph 81% 0.00 in 0 W/m2
02:35 53.8 °F 48.1 °F 30.04 in Calm   1 mph 81% 0.00 in 0 W/m2
02:40 53.7 °F 48 °F 30.04 in SE 1 mph 1 mph 81% 0.00 in 0 W/m2
02:45 53.5 °F 47.8 °F 30.04 in Calm   1 mph 81% 0.00 in 0 W/m2
02:50 53.5 °F 48.1 °F 30.04 in Calm   1 mph 82% 0.00 in 0 W/m2
02:55 53.4 °F 48 °F 30.04 in Calm   1 mph 82% 0.00 in 0 W/m2
03:00 53.3 °F 47.9 °F 30.05 in Calm   1 mph 82% 0.00 in 0 W/m2
03:05 53.2 °F 48.2 °F 30.04 in Calm   1 mph 83% 0.00 in 0 W/m2
03:10 53.2 °F 48.2 °F 30.05 in Calm     83% 0.00 in 0 W/m2
03:15 53.1 °F 48.4 °F 30.04 in Calm     84% 0.00 in 0 W/m2
03:20 53 °F 48.3 °F 30.04 in Calm   1 mph 84% 0.00 in 0 W/m2
03:25 53 °F 48.3 °F 30.04 in Calm   1 mph 84% 0.00 in 0 W/m2
03:30 53 °F 48.6 °F 30.04 in Calm     85% 0.00 in 0 W/m2
03:35 52.8 °F 48.4 °F 30.04 in Calm     85% 0.00 in 0 W/m2
03:40 52.8 °F 48.4 °F 30.04 in Calm   1 mph 85% 0.00 in 0 W/m2
03:45 52.8 °F 48.4 °F 30.04 in Calm   1 mph 85% 0.00 in 0 W/m2
03:50 52.7 °F 48.3 °F 30.04 in West 1 mph 1 mph 85% 0.00 in 0 W/m2
03:55 52.6 °F 48.2 °F 30.04 in WNW 1 mph 1 mph 85% 0.00 in 0 W/m2
04:00 52.4 °F 48 °F 30.04 in West 1 mph 1 mph 85% 0.00 in 0 W/m2
04:05 52.3 °F 47.9 °F 30.04 in WSW 1 mph 1 mph 85% 0.00 in 0 W/m2
04:10 52.3 °F 47.9 °F 30.03 in SW 1 mph 2 mph 85% 0.00 in 0 W/m2
04:15 52.1 °F 47.4 °F 30.03 in WSW 1 mph 2 mph 84% 0.00 in 0 W/m2
04:20 52.2 °F 47.5 °F 30.03 in SW 1 mph 2 mph 84% 0.00 in 0 W/m2
04:25 52.3 °F 47.9 °F 30.03 in WSW 1 mph 2 mph 85% 0.00 in 0 W/m2
04:30 52.4 °F 48 °F 30.03 in SW 1 mph 1 mph 85% 0.00 in 0 W/m2
04:35 52.5 °F 48.1 °F 30.03 in West 1 mph 1 mph 85% 0.00 in 0 W/m2
04:40 52.6 °F 48.2 °F 30.03 in West 1 mph 1 mph 85% 0.00 in 0 W/m2
04:45 52.7 °F 48 °F 30.03 in SSW 1 mph 1 mph 84% 0.00 in 0 W/m2
04:50 52.7 °F 48 °F 30.04 in WSW 1 mph 1 mph 84% 0.00 in 0 W/m2
04:55 52.8 °F 48.1 °F 30.04 in West 1 mph 1 mph 84% 0.00 in 0 W/m2
05:00 52.9 °F 48.2 °F 30.03 in WSW 1 mph 1 mph 84% 0.00 in 0 W/m2
05:05 53 °F 48.3 °F 30.04 in SW 1 mph 2 mph 84% 0.00 in 0 W/m2
05:10 53 °F 48.3 °F 30.04 in WSW 1 mph 1 mph 84% 0.00 in 0 W/m2
05:15 53.1 °F 48.4 °F 30.04 in SSW 1 mph 2 mph 84% 0.00 in 0 W/m2
05:20 53.2 °F 48.5 °F 30.04 in East 1 mph 1 mph 84% 0.00 in 0 W/m2
05:25 53.9 °F 50.1 °F 30.04 in North 1 mph 1 mph 87% 0.00 in 0 W/m2
05:30 54 °F 50.5 °F 30.04 in Calm     88% 0.00 in 0 W/m2
05:35 54 °F 50.5 °F 30.04 in Calm   1 mph 88% 0.00 in 0 W/m2
05:40 53.9 °F 50.4 °F 30.04 in Calm     88% 0.00 in 0 W/m2
05:45 53.8 °F 50.3 °F 30.04 in Calm     88% 0.00 in 0 W/m2
05:50 53.7 °F 50.2 °F 30.04 in North 1 mph 1 mph 88% 0.00 in 0 W/m2
05:55 53.5 °F 50 °F 30.04 in ESE 1 mph 1 mph 88% 0.00 in 0 W/m2
06:00 53.4 °F 49.9 °F 30.04 in Calm     88% 0.00 in 0 W/m2
06:05 53.4 °F 49.9 °F 30.05 in Calm   1 mph 88% 0.00 in 0 W/m2
06:10 53.2 °F 49.7 °F 30.05 in Calm   1 mph 88% 0.00 in 0 W/m2
06:15 53 °F 49.8 °F 30.05 in Calm   1 mph 89% 0.00 in 0 W/m2
06:20 52.8 °F 49.3 °F 30.05 in NNE 1 mph 1 mph 88% 0.00 in 0 W/m2
06:25 52.6 °F 49.1 °F 30.05 in WSW 1 mph 1 mph 88% 0.00 in 0 W/m2
06:30 52.6 °F 49.4 °F 30.05 in ENE 1 mph 1 mph 89% 0.00 in 0 W/m2
06:35 52.6 °F 49.4 °F 30.05 in NE 1 mph 1 mph 89% 0.00 in 0 W/m2
06:40 52.7 °F 49.5 °F 30.05 in ESE 1 mph 1 mph 89% 0.00 in 0 W/m2
06:45 52.7 °F 49.5 °F 30.05 in SE 1 mph 1 mph 89% 0.00 in 0 W/m2
06:50 52.7 °F 49.5 °F 30.05 in NE 1 mph 1 mph 89% 0.00 in 0 W/m2
06:55 52.6 °F 49.4 °F 30.05 in ENE 1 mph 1 mph 89% 0.00 in 0 W/m2
07:00 52.4 °F 49.3 °F 30.05 in North 1 mph 1 mph 89% 0.00 in 0 W/m2
07:05 52.3 °F 49.2 °F 30.05 in West 1 mph 1 mph 89% 0.00 in 0 W/m2
07:10 52.3 °F 49.2 °F 30.05 in NNE 1 mph 1 mph 89% 0.00 in 0 W/m2
07:15 52.1 °F 49 °F 30.04 in NNW 1 mph 1 mph 89% 0.00 in 0 W/m2
07:20 52.1 °F 48.7 °F 30.04 in SSE 1 mph 2 mph 88% 0.00 in 0 W/m2
07:25 52.1 °F 48.7 °F 30.04 in SSW 1 mph 3 mph 88% 0.00 in 0 W/m2
07:30 52.2 °F 49.1 °F 30.04 in SE 2 mph 2 mph 89% 0.00 in 0 W/m2
07:35 52.3 °F 48.9 °F 30.04 in NNE 1 mph 2 mph 88% 0.00 in 0 W/m2
07:40 52.1 °F 48.7 °F 30.04 in NNE 1 mph 1 mph 88% 0.00 in 0 W/m2
07:45 52.1 °F 48.7 °F 30.04 in NE 1 mph 1 mph 88% 0.00 in 0 W/m2
07:50 51.9 °F 48.5 °F 30.04 in WSW 1 mph 1 mph 88% 0.00 in 0 W/m2
07:55 51.7 °F 48 °F 30.04 in NE 1 mph 2 mph 87% 0.00 in 5 W/m2
08:00 51.6 °F 47.9 °F 30.04 in NNE 1 mph 1 mph 87% 0.00 in 7 W/m2
08:05 51.5 °F 47.8 °F 30.04 in ENE 1 mph 1 mph 87% 0.00 in 9 W/m2
08:10 51.5 °F 47.8 °F 30.04 in WSW 1 mph 1 mph 87% 0.00 in 16 W/m2
08:15 51.6 °F 47.9 °F 30.04 in NE 1 mph 2 mph 87% 0.00 in 32 W/m2
08:20 51.6 °F 47.5 °F 30.04 in ENE 1 mph 1 mph 86% 0.00 in 42 W/m2
08:25 51.6 °F 47.5 °F 30.04 in North 1 mph 1 mph 86% 0.00 in 53 W/m2
08:30 51.6 °F 47.5 °F 30.04 in SW 1 mph 3 mph 86% 0.00 in 46 W/m2
08:35 51.6 °F 47.5 °F 30.04 in SW 1 mph 3 mph 86% 0.00 in 23 W/m2
08:40 51.6 °F 47.2 °F 30.04 in ESE 1 mph 1 mph 85% 0.00 in 88 W/m2
08:45 51.7 °F 47.3 °F 30.04 in South 2 mph 4 mph 85% 0.00 in 26 W/m2
08:50 51.6 °F 47.2 °F 30.05 in SE 2 mph 2 mph 85% 0.00 in 25 W/m2
08:55 51.7 °F 47.3 °F 30.04 in SW 3 mph 3 mph 85% 0.00 in 28 W/m2
09:00 51.7 °F 47.3 °F 30.05 in SW 3 mph 3 mph 85% 0.00 in 28 W/m2
09:05 51.9 °F 47.8 °F 30.05 in SSW 2 mph 3 mph 86% 0.00 in 28 W/m2
09:10 52 °F 47.9 °F 30.05 in ESE 2 mph 2 mph 86% 0.00 in 28 W/m2
09:15 52.1 °F 48.3 °F 30.05 in North 2 mph 2 mph 87% 0.00 in 33 W/m2
09:20 52.4 °F 48.6 °F 30.05 in WNW 1 mph 2 mph 87% 0.00 in 32 W/m2
09:25 52.7 °F 49.2 °F 30.05 in NE 1 mph 2 mph 88% 0.00 in 30 W/m2
09:30 52.9 °F 49.4 °F 30.05 in SW 1 mph 3 mph 88% 0.00 in 30 W/m2
09:35 53.5 °F 50 °F 30.05 in SSW 2 mph 5 mph 88% 0.00 in 30 W/m2
09:40 54 °F 50.5 °F 30.05 in SW 3 mph 3 mph 88% 0.00 in 30 W/m2
09:45 54.6 °F 50.8 °F 30.05 in WSW 3 mph 4 mph 87% 0.00 in 46 W/m2
09:50 54.9 °F 51.1 °F 30.05 in South 3 mph 3 mph 87% 0.00 in 33 W/m2
09:55 55.3 °F 51.2 °F 30.05 in SW 3 mph 3 mph 86% 0.00 in 37 W/m2
10:00 56 °F 51.6 °F 30.05 in SW 3 mph 3 mph 85% 0.00 in 33 W/m2
10:05 56.6 °F 52.1 °F 30.05 in SW 3 mph 3 mph 85% 0.00 in 33 W/m2
10:10 56.9 °F 52.1 °F 30.05 in NW 3 mph 4 mph 84% 0.00 in 74 W/m2
10:15 57 °F 51.9 °F 30.05 in WSW 4 mph 4 mph 83% 0.00 in 58 W/m2
10:20 57.3 °F 52.2 °F 30.05 in SSW 3 mph 3 mph 83% 0.00 in 40 W/m2
10:25 57.4 °F 52.3 °F 30.05 in WSW 3 mph 3 mph 83% 0.00 in 81 W/m2
10:30 57.5 °F 52 °F 30.05 in SSW 3 mph 3 mph 82% 0.00 in 62 W/m2
10:35 57.6 °F 52.1 °F 30.05 in WSW 3 mph 4 mph 82% 0.00 in 79 W/m2
10:40 57.7 °F 51.9 °F 30.05 in SSE 3 mph 4 mph 81% 0.00 in 40 W/m2
10:45 57.8 °F 52 °F 30.05 in WNW 3 mph 4 mph 81% 0.00 in 40 W/m2
10:50 57.9 °F 52.1 °F 30.05 in SW 3 mph 3 mph 81% 0.00 in 54 W/m2
10:55 58 °F 52.2 °F 30.05 in WSW 3 mph 3 mph 81% 0.00 in 120 W/m2
11:00 58.1 °F 52.3 °F 30.05 in SW 3 mph 3 mph 81% 0.00 in 44 W/m2
11:05 58.1 °F 52 °F 30.05 in South 3 mph 3 mph 80% 0.00 in 44 W/m2
11:10 58.1 °F 52 °F 30.05 in WSW 3 mph 3 mph 80% 0.00 in 39 W/m2
11:15 58.2 °F 52.4 °F 30.05 in SW 2 mph 3 mph 81% 0.00 in 40 W/m2
11:20 58.2 °F 52.4 °F 30.05 in WNW 3 mph 4 mph 81% 0.00 in 44 W/m2
11:25 58.3 °F 52.5 °F 30.05 in WNW 3 mph 4 mph 81% 0.00 in 69 W/m2
11:30 58.4 °F 52.6 °F 30.05 in NW 3 mph 3 mph 81% 0.00 in 40 W/m2
11:35 58.4 °F 52.6 °F 30.05 in SSE 3 mph 3 mph 81% 0.00 in 40 W/m2
11:40 58.6 °F 52.8 °F 30.05 in WSW 3 mph 7 mph 81% 0.00 in 49 W/m2
11:45 58.7 °F 52.9 °F 30.05 in South 3 mph 7 mph 81% 0.00 in 40 W/m2
11:50 58.8 °F 53 °F 30.04 in South 3 mph 3 mph 81% 0.00 in 47 W/m2
11:55 58.9 °F 53.1 °F 30.04 in SW 3 mph 4 mph 81% 0.00 in 323 W/m2
12:00 59.1 °F 53.3 °F 30.04 in South 3 mph 3 mph 81% 0.00 in 508 W/m2
12:05 59.1 °F 53.3 °F 30.04 in SW 3 mph 3 mph 81% 0.00 in 517 W/m2
12:10 59.2 °F 53 °F 30.04 in South 3 mph 3 mph 80% 0.00 in 522 W/m2
12:15 59.2 °F 53 °F 30.04 in South 3 mph 3 mph 80% 0.00 in 531 W/m2
12:20 59.3 °F 53.5 °F 30.04 in SW 3 mph 3 mph 81% 0.00 in 536 W/m2
12:25 59.4 °F 53.2 °F 30.04 in SW 3 mph 3 mph 80% 0.00 in 541 W/m2
12:30 59.4 °F 53.2 °F 30.03 in SSW 2 mph 2 mph 80% 0.00 in 547 W/m2
12:35 59.5 °F 53.3 °F 30.03 in South 2 mph 3 mph 80% 0.00 in 552 W/m2
12:40 59.6 °F 53.8 °F 30.03 in SSW 3 mph 4 mph 81% 0.00 in 555 W/m2
12:45 59.6 °F 53.4 °F 30.03 in WSW 3 mph 4 mph 80% 0.00 in 559 W/m2
12:50 59.8 °F 54 °F 30.03 in SSW 2 mph 3 mph 81% 0.00 in 563 W/m2
12:55 59.9 °F 53.7 °F 30.02 in SSW 2 mph 3 mph 80% 0.00 in 548 W/m2
13:00 60 °F 53.5 °F 30.02 in SW 2 mph 2 mph 79% 0.00 in 563 W/m2
13:05 60.2 °F 53.7 °F 30.02 in SW 3 mph 3 mph 79% 0.00 in 568 W/m2
13:10 60.3 °F 53.8 °F 30.02 in SSW 2 mph 4 mph 79% 0.00 in 570 W/m2
13:15 60.4 °F 53.9 °F 30.02 in SSW 2 mph 4 mph 79% 0.00 in 571 W/m2
13:20 60.6 °F 53.7 °F 30.01 in South 2 mph 3 mph 78% 0.00 in 573 W/m2
13:25 60.7 °F 53.4 °F 30.01 in SSE 2 mph 3 mph 77% 0.00 in 575 W/m2
13:30 60.9 °F 53.6 °F 30.01 in SE 2 mph 2 mph 77% 0.00 in 570 W/m2
13:35 61.2 °F 53.6 °F 30.01 in ESE 1 mph 2 mph 76% 0.00 in 566 W/m2
13:40 61.5 °F 54.2 °F 30.00 in NNW 1 mph 1 mph 77% 0.00 in 571 W/m2
13:45 61.8 °F 54.2 °F 30.00 in North 1 mph 1 mph 76% 0.00 in 573 W/m2
13:50 62 °F 54 °F 30.00 in SE 1 mph 1 mph 75% 0.00 in 571 W/m2
13:55 62.1 °F 53.7 °F 30.00 in SSW 1 mph 4 mph 74% 0.00 in 570 W/m2
14:00 62.3 °F 53.9 °F 30.00 in East 1 mph 1 mph 74% 0.00 in 568 W/m2
14:05 62.4 °F 53.6 °F 30.00 in ESE 1 mph 1 mph 73% 0.00 in 564 W/m2
14:10 62.6 °F 53.8 °F 30.00 in SE 1 mph 2 mph 73% 0.00 in 563 W/m2
14:15 62.8 °F 54 °F 29.99 in NE 1 mph 2 mph 73% 0.00 in 559 W/m2
14:20 63.1 °F 53.9 °F 29.99 in SSW 2 mph 2 mph 72% 0.00 in 554 W/m2
14:25 63.3 °F 54.1 °F 29.99 in SE 2 mph 2 mph 72% 0.00 in 550 W/m2
14:30 63.5 °F 53.9 °F 29.99 in ESE 2 mph 2 mph 71% 0.00 in 545 W/m2
14:35 63.8 °F 54.2 °F 29.99 in SW 2 mph 2 mph 71% 0.00 in 540 W/m2
14:40 64 °F 54.4 °F 29.99 in SSW 2 mph 2 mph 71% 0.00 in 536 W/m2
14:45 64.1 °F 54.1 °F 29.99 in SW 2 mph 2 mph 70% 0.00 in 531 W/m2
14:50 64.3 °F 54.3 °F 29.98 in SW 1 mph 1 mph 70% 0.00 in 524 W/m2
14:55 64.3 °F 54.7 °F 29.98 in ESE 1 mph 1 mph 71% 0.00 in 519 W/m2
15:00 64.4 °F 54.8 °F 29.98 in SE 1 mph 1 mph 71% 0.00 in 512 W/m2
15:05 64.5 °F 54.9 °F 29.98 in SW 2 mph 3 mph 71% 0.00 in 503 W/m2
15:10 64.6 °F 55 °F 29.98 in SSW 2 mph 3 mph 71% 0.00 in 497 W/m2
15:15 64.6 °F 55 °F 29.98 in West 2 mph 3 mph 71% 0.00 in 489 W/m2
15:20 64.8 °F 55.2 °F 29.98 in SSW 2 mph 2 mph 71% 0.00 in 480 W/m2
15:25 64.9 °F 54.5 °F 29.98 in WSW 2 mph 2 mph 69% 0.00 in 471 W/m2
15:30 65.1 °F 54.7 °F 29.98 in SE 2 mph 2 mph 69% 0.00 in 461 W/m2
15:35 65.3 °F 54.9 °F 29.98 in SSE 2 mph 2 mph 69% 0.00 in 450 W/m2
15:40 65.4 °F 55.4 °F 29.98 in ESE 2 mph 2 mph 70% 0.00 in 401 W/m2
15:45 65.5 °F 55.1 °F 29.97 in SW 1 mph 2 mph 69% 0.00 in 427 W/m2
15:50 65.6 °F 55.5 °F 29.97 in SSE 2 mph 2 mph 70% 0.00 in 373 W/m2
15:55 65.7 °F 55.2 °F 29.97 in North 2 mph 2 mph 69% 0.00 in 353 W/m2
16:00 65.8 °F 54.9 °F 29.97 in SE 2 mph 2 mph 68% 0.00 in 397 W/m2
16:05 65.8 °F 55.3 °F 29.97 in NW 1 mph 2 mph 69% 0.00 in 244 W/m2
16:10 65.8 °F 54.9 °F 29.97 in NE 1 mph 1 mph 68% 0.00 in 69 W/m2
16:15 66.1 °F 55.6 °F 29.97 in SSW 2 mph 2 mph 69% 0.00 in 100 W/m2
16:20 66 °F 55.9 °F 29.97 in North 2 mph 2 mph 70% 0.00 in 204 W/m2
16:25 66 °F 55.9 °F 29.97 in East 2 mph 2 mph 70% 0.00 in 345 W/m2
16:30 66 °F 55.9 °F 29.97 in ESE 2 mph 2 mph 70% 0.00 in 332 W/m2
16:35 66 °F 56.3 °F 29.97 in SSE 2 mph 2 mph 71% 0.00 in 318 W/m2
16:40 66 °F 55.9 °F 29.97 in SSE 2 mph 2 mph 70% 0.00 in 292 W/m2
16:45 66.1 °F 55.6 °F 29.96 in SE 2 mph 2 mph 69% 0.00 in 232 W/m2
16:50 66.2 °F 56.1 °F 29.97 in NE 1 mph 1 mph 70% 0.00 in 77 W/m2
16:55 66.2 °F 55.3 °F 29.97 in SSW 1 mph 2 mph 68% 0.00 in 127 W/m2
17:00 66.5 °F 55.6 °F 29.96 in SSW 2 mph 3 mph 68% 0.00 in 172 W/m2
17:05 66.5 °F 55.6 °F 29.96 in SW 2 mph 5 mph 68% 0.00 in 234 W/m2
17:10 66.5 °F 55.6 °F 29.96 in SSE 3 mph 3 mph 68% 0.00 in 185 W/m2
17:15 66.5 °F 56 °F 29.96 in SSW 3 mph 4 mph 69% 0.00 in 214 W/m2
17:20 66.5 °F 56 °F 29.96 in SSW 3 mph 4 mph 69% 0.00 in 188 W/m2
17:25 66.6 °F 56.1 °F 29.96 in SE 3 mph 4 mph 69% 0.00 in 190 W/m2
17:30 66.5 °F 56.4 °F 29.96 in WSW 3 mph 3 mph 70% 0.00 in 172 W/m2
17:35 66.3 °F 56.2 °F 29.96 in SSW 3 mph 5 mph 70% 0.00 in 104 W/m2
17:40 66.2 °F 56.1 °F 29.96 in SE 3 mph 3 mph 70% 0.00 in 93 W/m2
17:45 66.1 °F 56 °F 29.96 in SSW 2 mph 3 mph 70% 0.00 in 79 W/m2
17:50 66 °F 55.9 °F 29.96 in SSW 2 mph 2 mph 70% 0.00 in 56 W/m2
17:55 65.9 °F 56.2 °F 29.96 in South 3 mph 3 mph 71% 0.00 in 25 W/m2
18:00 65.8 °F 56.5 °F 29.96 in SW 3 mph 4 mph 72% 0.00 in 23 W/m2
18:05 65.7 °F 56.8 °F 29.96 in SW 3 mph 5 mph 73% 0.00 in 28 W/m2
18:10 65.4 °F 56.9 °F 29.97 in South 3 mph 5 mph 74% 0.00 in 49 W/m2
18:15 65.3 °F 56.8 °F 29.97 in SSE 3 mph 5 mph 74% 0.00 in 35 W/m2
18:20 65 °F 56.9 °F 29.97 in WSW 3 mph 3 mph 75% 0.00 in 16 W/m2
18:25 64.9 °F 57.2 °F 29.97 in SW 3 mph 3 mph 76% 0.00 in 11 W/m2
18:30 64.7 °F 57 °F 29.97 in SSE 3 mph 3 mph 76% 0.00 in 11 W/m2
18:35 64.5 °F 56.8 °F 29.97 in SW 3 mph 5 mph 76% 0.00 in 9 W/m2
18:40 64.3 °F 56.6 °F 29.97 in WSW 3 mph 3 mph 76% 0.00 in 5 W/m2
18:45 64.2 °F 56.8 °F 29.97 in SW 3 mph 4 mph 77% 0.00 in 0 W/m2
18:50 64.1 °F 56.7 °F 29.97 in SSW 3 mph 4 mph 77% 0.00 in 0 W/m2
18:55 64 °F 57 °F 29.97 in West 3 mph 4 mph 78% 0.00 in 0 W/m2
19:00 63.8 °F 56.4 °F 29.97 in WSW 2 mph 2 mph 77% 0.00 in 0 W/m2
19:05 63.7 °F 56.4 °F 29.97 in West 2 mph 3 mph 77% 0.00 in 0 W/m2
19:10 63.6 °F 56.3 °F 29.97 in WSW 2 mph 3 mph 77% 0.00 in 0 W/m2
19:15 63.6 °F 56.6 °F 29.98 in SW 2 mph 3 mph 78% 0.00 in 0 W/m2
19:20 63.5 °F 56.5 °F 29.98 in SW 2 mph 2 mph 78% 0.00 in 0 W/m2
19:25 63.5 °F 56.5 °F 29.98 in SSW 2 mph 3 mph 78% 0.00 in 0 W/m2
19:30 63.4 °F 56.8 °F 29.98 in SW 2 mph 5 mph 79% 0.00 in 0 W/m2
19:35 63.3 °F 56.7 °F 29.98 in SW 2 mph 5 mph 79% 0.00 in 0 W/m2
19:40 63.2 °F 56.6 °F 29.98 in WNW 2 mph 2 mph 79% 0.00 in 0 W/m2
19:45 63.1 °F 56.5 °F 29.98 in SSW 2 mph 2 mph 79% 0.00 in 0 W/m2
19:50 63 °F 56 °F 29.98 in SSW 2 mph 2 mph 78% 0.00 in 0 W/m2
19:55 63 °F 56.4 °F 29.99 in SW 2 mph 4 mph 79% 0.00 in 0 W/m2
20:00 63 °F 56.4 °F 29.99 in SW 3 mph 3 mph 79% 0.00 in 0 W/m2
20:05 63 °F 56.4 °F 29.99 in ENE 2 mph 3 mph 79% 0.00 in 0 W/m2
20:10 63 °F 56.4 °F 29.99 in SSE 2 mph 2 mph 79% 0.00 in 0 W/m2
20:15 63.1 °F 56.1 °F 29.99 in WNW 2 mph 2 mph 78% 0.00 in 0 W/m2
20:20 63.1 °F 56.5 °F 29.99 in SSW 2 mph 4 mph 79% 0.00 in 0 W/m2
20:25 63.1 °F 56.1 °F 29.99 in SSW 2 mph 4 mph 78% 0.00 in 0 W/m2
20:30 63.1 °F 56.5 °F 29.99 in SSW 2 mph 2 mph 79% 0.00 in 0 W/m2
20:35 63.1 °F 56.5 °F 29.99 in SSW 2 mph 5 mph 79% 0.00 in 0 W/m2
20:40 63.1 °F 56.5 °F 29.99 in SW 2 mph 2 mph 79% 0.00 in 0 W/m2
20:45 63 °F 56 °F 29.99 in West 3 mph 3 mph 78% 0.00 in 0 W/m2
20:50 63 °F 56 °F 29.99 in WSW 2 mph 3 mph 78% 0.00 in 0 W/m2
20:55 63 °F 56.4 °F 29.99 in North 2 mph 3 mph 79% 0.00 in 0 W/m2
21:00 63 °F 56.4 °F 29.99 in SW 2 mph 2 mph 79% 0.00 in 0 W/m2
21:05 62.9 °F 56.3 °F 29.99 in WNW 2 mph 2 mph 79% 0.00 in 0 W/m2
21:10 62.9 °F 56.3 °F 29.99 in SE 2 mph 2 mph 79% 0.00 in 0 W/m2
21:15 62.9 °F 56.6 °F 29.99 in SE 2 mph 2 mph 80% 0.00 in 0 W/m2
21:20 62.8 °F 56.5 °F 29.99 in SSW 2 mph 2 mph 80% 0.00 in 0 W/m2
21:25 62.7 °F 56.4 °F 29.99 in WNW 2 mph 2 mph 80% 0.00 in 0 W/m2
21:30 62.6 °F 56.3 °F 29.99 in West 2 mph 3 mph 80% 0.00 in 0 W/m2
21:35 62.5 °F 56.2 °F 29.99 in SW 2 mph 5 mph 80% 0.00 in 0 W/m2
21:40 62.5 °F 56.6 °F 29.99 in SSW 2 mph 2 mph 81% 0.00 in 0 W/m2
21:45 62.3 °F 56.4 °F 29.99 in West 2 mph 4 mph 81% 0.00 in 0 W/m2
21:50 62.2 °F 56.3 °F 30.00 in SSW 2 mph 2 mph 81% 0.00 in 0 W/m2
21:55 62.1 °F 56.5 °F 30.00 in SW 2 mph 2 mph 82% 0.00 in 0 W/m2
22:00 62 °F 56.4 °F 30.00 in WSW 2 mph 2 mph 82% 0.00 in 0 W/m2
22:05 61.9 °F 56.3 °F 30.00 in SSE 2 mph 3 mph 82% 0.00 in 0 W/m2
22:10 61.7 °F 56.1 °F 30.00 in SW 2 mph 2 mph 82% 0.00 in 0 W/m2
22:15 61.6 °F 56 °F 30.00 in ENE 2 mph 2 mph 82% 0.00 in 0 W/m2
22:20 61.5 °F 56 °F 30.00 in NE 2 mph 2 mph 82% 0.00 in 0 W/m2
22:25 61.3 °F 55.4 °F 30.00 in West 3 mph 4 mph 81% 0.00 in 0 W/m2
22:30 61.4 °F 55.5 °F 30.01 in SSE 3 mph 3 mph 81% 0.00 in 0 W/m2
22:35 61.3 °F 55.4 °F 30.01 in WSW 3 mph 4 mph 81% 0.00 in 0 W/m2
22:40 61.3 °F 55.4 °F 30.01 in SW 3 mph 3 mph 81% 0.00 in 0 W/m2
22:45 61.3 °F 55.4 °F 30.01 in WSW 3 mph 3 mph 81% 0.00 in 0 W/m2
22:50 61.3 °F 55.4 °F 30.01 in WSW 2 mph 3 mph 81% 0.00 in 0 W/m2
22:55 61.3 °F 55.4 °F 30.01 in SW 2 mph 4 mph 81% 0.00 in 0 W/m2
23:00 61.2 °F 55.3 °F 30.01 in WSW 2 mph 2 mph 81% 0.00 in 0 W/m2
23:05 61.2 °F 55.3 °F 30.01 in East 2 mph 2 mph 81% 0.00 in 0 W/m2
23:10 61.2 °F 55.3 °F 30.01 in South 2 mph 4 mph 81% 0.00 in 0 W/m2
23:15 61.1 °F 55.2 °F 30.01 in NNW 2 mph 4 mph 81% 0.00 in 0 W/m2
23:20 61 °F 55.5 °F 30.01 in WSW 2 mph 2 mph 82% 0.00 in 0 W/m2
23:25 61 °F 55.5 °F 30.01 in WSW 2 mph 2 mph 82% 0.00 in 0 W/m2
23:30 60.9 °F 55.4 °F 30.01 in West 2 mph 3 mph 82% 0.00 in 0 W/m2
23:35 60.8 °F 54.9 °F 30.01 in SW 3 mph 3 mph 81% 0.00 in 0 W/m2
23:40 60.7 °F 54.8 °F 30.01 in SW 3 mph 3 mph 81% 0.00 in 0 W/m2
23:45 60.7 °F 54.8 °F 30.01 in West 2 mph 3 mph 81% 0.00 in 0 W/m2
23:50 60.7 °F 54.8 °F 30.01 in WSW 2 mph 2 mph 81% 0.00 in 0 W/m2
23:55 60.7 °F 54.8 °F 30.01 in NW 2 mph 2 mph 81% 0.00 in 0 W/m2
Sand Point, Michigan, USA
Compliments of Weather Underground - 2 mb